Temp
56 54 53 52 51 52 52 52 51 51 50 51 51 51 51 52 50 51 51 51 51 48 47 47 48 48 47 47 46 47 47 47
54 54 52 51 50 51 51 49 49 49 47 46 47 47 49 49 51 51 50 50 49 47 46 45 45 44 46 46 45 44 44 46
53 50 49 48 49 49 50 49 48 47 46 46 46 46 48 47 49 49 50 49 48 48 45 45 46 45 44 44 43 41 43 44
52 51 49 47 47 47 49 48 47 47 47 47 46 46 47 46 46 46 47 48 47 45 44 44 45 45 43 43 43 42 39 42
53 51 48 47 47 48 49 49 48 48 47 45 43 42 40 42 43 44 46 47 46 45 44 45 44 44 43 42 44 42 42 38
51 49 49 49 48 47 48 47 47 47 47 46 43 42 42 43 42 42 42 43 44 44 43 44 43 43 42 42 42 41 42 40
49 49 49 46 45 46 47 47 47 47 47 46 44 43 43 40 40 40 40 41 41 42 43 43 42 41 41 41 41 41 41 40
45 44 42 43 42 42 44 44 43 44 44 45 44 43 42 41 40 39 39 39 39 40 41 40 40 40 40 40 40 40 40 39
42 42 40 40 41 40 40 41 40 41 42 43 44 44 43 42 40 40 38 39 40 39 39 40 39 39 39 39 39 39 39 38
40 40 39 38 39 38 38 39 40 40 41 42 42 42 41 40 40 39 39 39 40 38 38 38 38 38 37 38 37 37 37 37
38 36 37 37 37 38 38 38 38 39 39 40 42 41 40 40 39 37 37 37 37 37 37 37 37 34 36 36 36 37 36 35
32 30 33 32 33 34 34 34 35 35 36 37 38 38 38 38 37 36 36 37 36 36 36 33 34 32 33 35 35 35 34 33
31 32 31 28 27 30 32 33 34 36 36 35 36 36 37 36 35 35 38 37 35 35 33 31 31 30 31 32 34 34 32 31
30 30 29 30 31 31 33 33 32 34 34 35 35 35 35 35 35 35 35 33 32 31 31 29 29 29 30 30 32 31 30 28
30 28 30 30 31 30 31 31 29 30 33 32 33 33 35 35 35 34 33 32 31 30 29 28 28 29 31 31 31 30 28 28
31 30 29 31 31 31 33 33 33 33 33 35 34 35 35 35 35 33 33 32 32 31 28 26 25 28 31 29 29 28 27 26
33 34 33 32 33 32 36 36 35 37 36 35 37 37 37 35 35 34 33 31 30 27 25 20 19 26 33 34 30 25 25 24
36 35 34 36 36 37 36 38 39 38 37 38 38 38 37 36 36 35 33 31 30 28 24 21 20 22 32 33 31 21 19 18
36 35 38 38 37 37 37 38 37 37 36 37 38 37 36 36 35 33 32 31 30 29 28 28 26 29 32 31 30 19 16 16
MSLP
1018.50 1019.34 1020.07 1020.53 1020.89 1021.08 1021.18 1021.07 1021.12 1020.90 1020.85 1020.68 1020.62 1020.75 1020.90 1020.89 1020.96 1021.20 1021.20 1021.24 1021.23 1021.46 1021.63 1021.43 1021.15 1020.74 1020.47 1020.10 1019.87 1019.42 1018.58 1017.82
1018.38 1019.02 1019.81 1020.62 1021.20 1021.42 1021.73 1021.74 1021.45 1021.17 1021.31 1021.37 1021.47 1021.66 1021.56 1021.58 1021.65 1021.63 1021.59 1021.50 1021.48 1021.91 1022.17 1021.98 1021.74 1021.45 1021.20 1020.89 1020.46 1019.72 1018.92 1018.31
1018.70 1019.67 1020.27 1020.86 1021.31 1021.71 1021.95 1022.16 1022.08 1021.93 1021.72 1021.97 1021.99 1021.94 1022.49 1022.34 1022.27 1022.19 1022.10 1021.98 1022.19 1022.28 1022.53 1022.36 1022.06 1021.82 1021.61 1021.32 1020.90 1020.40 1019.90 1019.39
1018.30 1019.24 1020.02 1020.70 1021.42 1022.01 1022.17 1022.36 1022.53 1022.60 1022.52 1022.26 1022.27 1022.30 1022.55 1022.88 1023.11 1023.02 1022.81 1022.55 1022.80 1022.95 1022.91 1022.78 1022.52 1022.08 1021.90 1021.74 1021.25 1020.89 1020.52 1020.17
1018.53 1019.61 1020.48 1021.06 1021.56 1021.86 1022.16 1022.45 1022.85 1023.10 1022.86 1022.88 1023.14 1023.46 1023.60 1023.77 1023.71 1023.74 1023.45 1023.30 1023.34 1023.39 1023.27 1023.03 1022.75 1022.52 1022.32 1022.03 1021.54 1021.40 1021.22 1020.49
1018.37 1019.51 1020.43 1021.11 1021.71 1022.22 1022.67 1022.85 1022.86 1023.09 1023.43 1023.28 1023.36 1023.90 1024.13 1024.10 1024.06 1024.11 1024.07 1023.89 1023.83 1023.79 1023.71 1023.46 1023.31 1023.12 1022.79 1022.60 1022.15 1021.84 1021.31 1021.05
1019.32 1020.32 1021.02 1021.86 1022.31 1022.63 1022.77 1023.13 1023.32 1023.32 1023.46 1023.92 1023.90 1024.04 1024.26 1024.47 1024.38 1024.36 1024.43 1024.36 1024.24 1024.09 1024.11 1024.03 1023.67 1023.69 1023.35 1022.88 1022.75 1022.14 1021.58 1021.39
1020.38 1021.16 1021.98 1022.58 1022.90 1023.56 1023.59 1023.71 1023.93 1023.96 1023.81 1024.18 1024.29 1024.35 1024.38 1024.58 1024.61 1024.61 1024.80 1024.77 1024.55 1024.49 1024.52 1024.50 1024.32 1023.96 1023.61 1023.29 1022.81 1022.51 1022.09 1021.59
1020.91 1021.77 1022.63 1023.42 1023.70 1024.07 1024.33 1024.46 1024.59 1024.48 1024.45 1024.59 1024.61 1024.56 1024.59 1024.70 1024.88 1024.95 1025.26 1025.09 1025.02 1025.13 1025.05 1024.89 1024.58 1024.22 1023.96 1023.50 1023.06 1022.81 1022.41 1021.98
1021.40 1022.03 1023.00 1023.69 1024.24 1024.83 1024.91 1025.10 1025.25 1025.21 1025.13 1025.06 1025.00 1024.96 1024.77 1025.02 1025.22 1025.48 1025.46 1025.51 1025.51 1025.59 1025.43 1025.16 1024.90 1024.62 1024.30 1023.84 1023.58 1023.19 1022.79 1022.36
1022.08 1023.15 1024.09 1023.98 1025.08 1025.31 1025.24 1025.52 1025.94 1026.00 1025.79 1025.57 1025.51 1025.37 1025.28 1025.42 1025.68 1025.89 1025.86 1026.00 1026.06 1025.90 1025.79 1025.54 1025.25 1025.26 1024.65 1024.22 1023.80 1023.45 1023.15 1022.74
1022.55 1023.60 1024.61 1025.10 1025.38 1026.06 1026.07 1026.25 1026.40 1026.39 1026.23 1026.11 1025.93 1025.89 1025.83 1025.84 1026.06 1026.24 1026.19 1026.29 1026.42 1026.26 1026.11 1026.06 1025.87 1025.75 1025.21 1024.64 1024.17 1023.80 1023.47 1023.04
1022.83 1023.97 1025.01 1025.53 1026.05 1026.40 1026.42 1026.69 1026.71 1026.57 1026.57 1026.34 1026.26 1026.28 1026.13 1026.17 1026.41 1026.43 1026.39 1026.44 1026.59 1026.66 1026.56 1026.56 1026.54 1026.30 1025.62 1025.13 1024.53 1024.29 1023.91 1023.42
1023.50 1024.55 1025.25 1025.73 1026.32 1026.68 1026.75 1026.84 1026.89 1026.70 1026.63 1026.39 1026.42 1026.33 1026.36 1026.41 1026.48 1026.57 1026.53 1026.82 1026.97 1026.96 1027.02 1027.05 1026.89 1026.51 1025.99 1025.45 1025.10 1024.85 1024.39 1024.01
1023.21 1024.37 1025.04 1025.66 1026.17 1026.48 1026.77 1026.79 1026.94 1026.71 1026.50 1026.43 1026.39 1026.35 1026.39 1026.30 1026.43 1026.62 1026.79 1026.99 1027.09 1027.09 1027.47 1027.60 1027.40 1026.94 1026.23 1025.69 1025.37 1025.04 1024.73 1024.48
1022.90 1024.10 1024.93 1025.35 1025.69 1026.11 1026.38 1026.38 1026.43 1026.37 1026.36 1026.18 1026.22 1026.25 1026.24 1026.25 1026.32 1026.63 1026.87 1027.04 1027.15 1027.29 1028.00 1028.19 1027.79 1026.97 1026.22 1025.59 1025.29 1025.20 1025.10 1024.95
1022.48 1023.47 1024.37 1024.72 1025.13 1025.43 1025.61 1025.57 1025.77 1025.93 1025.87 1026.07 1025.92 1026.06 1026.14 1026.23 1026.40 1026.62 1026.90 1027.28 1027.47 1027.63 1028.03 1028.05 1027.88 1027.27 1026.35 1025.69 1025.61 1025.67 1025.54 1025.34
1021.55 1022.48 1023.37 1023.73 1024.18 1024.67 1025.04 1025.04 1025.13 1025.43 1025.68 1025.87 1025.94 1026.09 1026.27 1026.43 1026.61 1026.84 1027.08 1027.40 1027.59 1027.71 1027.76 1027.94 1027.81 1027.56 1026.72 1026.26 1026.02 1026.34 1025.94 1025.65
1020.98 1022.00 1022.53 1022.88 1023.59 1024.21 1024.61 1024.85 1025.15 1025.56 1025.91 1026.03 1026.17 1026.37 1026.54 1026.77 1026.92 1027.11 1027.31 1027.49 1027.65 1027.79 1027.85 1027.87 1027.91 1027.58 1027.08 1026.74 1026.50 1026.79 1026.31 1025.98
Wind_Speed
9 9 9 8 7 7 6 5 7 7 5 6 5 5 5 5 5 6 8 6 9 9 8 9 9 8 9 9 11 10 10 12
11 9 9 9 7 6 6 7 7 6 5 4 4 3 4 4 7 8 7 6 7 9 7 8 8 8 11 11 9 13 10 12
11 9 9 8 7 6 7 7 7 7 4 3 3 3 4 4 6 7 7 8 10 9 9 8 10 9 12 12 12 9 8 11
13 11 9 9 8 7 7 7 8 8 7 5 5 4 4 6 6 5 7 8 9 9 8 7 8 8 9 11 10 12 9 8
12 11 9 9 7 7 7 9 8 7 7 5 7 4 4 3 3 4 6 8 9 10 8 10 10 8 9 9 9 9 9 9
14 12 12 10 8 7 6 7 8 7 6 6 5 5 3 3 4 6 6 6 7 9 8 10 10 7 9 10 10 9 6 6
15 12 12 10 8 7 6 7 7 6 6 6 7 6 5 4 4 4 4 4 4 8 11 11 10 9 9 9 9 9 8 7
12 11 10 8 8 6 4 7 7 7 7 6 6 6 6 5 5 6 6 5 5 10 11 11 9 10 10 9 9 9 9 8
11 10 8 8 8 8 8 7 8 7 7 6 6 6 4 4 6 7 6 6 7 10 10 10 11 11 10 10 7 7 9 7
13 11 9 8 8 7 7 7 7 7 8 6 6 6 6 6 8 8 6 8 9 10 11 10 10 11 11 10 7 8 8 8
11 9 8 8 7 6 7 7 8 7 7 8 6 7 6 6 8 9 8 8 9 9 11 10 10 10 11 10 8 9 9 7
10 7 7 6 7 6 6 6 6 4 5 5 6 6 6 6 7 7 6 8 8 9 9 10 9 10 10 9 9 10 10 10
10 9 7 6 4 2 4 4 4 3 3 4 4 5 5 6 5 5 5 5 5 6 6 9 8 9 9 10 10 10 10 11
9 9 7 7 5 3 1 3 3 2 3 1 3 4 4 4 4 5 4 6 5 5 5 8 8 9 9 9 7 9 10 12
10 8 7 7 6 5 4 4 4 4 4 3 4 4 2 0 4 4 5 5 4 5 6 8 7 7 8 9 7 7 8 10
10 8 6 7 6 6 7 6 6 5 4 2 4 4 3 2 2 5 4 5 3 3 6 4 5 7 8 10 6 6 8 9
12 12 11 10 10 8 9 6 9 7 6 5 3 4 3 2 4 5 6 5 3 4 5 3 6 6 20 19 13 8 8 9
15 13 11 11 10 9 10 6 5 6 5 5 5 5 5 6 6 6 6 5 4 5 4 4 5 6 22 20 19 5 4 5
14 11 11 10 8 7 7 6 6 6 6 5 5 5 6 5 6 6 5 4 4 4 5 6 5 10 20 21 15 6 5 5
Wind_Direction
135 102 86 82 67 59 72 69 31 26 26 28 28 27 33 53 55 47 47 36 38 42 24 16 9 8 4 4 356 348 342 339
118 116 107 91 63 55 52 59 39 39 18 39 27 11 20 32 57 35 43 34 47 44 27 14 15 13 7 4 355 349 351 341
125 115 98 99 92 56 59 66 51 34 20 23 25 1 40 45 50 27 31 37 49 43 34 11 11 6 8 6 3 352 349 353
142 134 132 116 97 64 64 70 60 48 38 26 13 26 35 29 20 23 16 37 60 43 32 17 6 12 8 359 1 358 348 350
128 127 112 113 106 83 67 76 59 52 36 42 52 51 40 23 16 32 15 36 55 37 22 17 11 7 3 355 357 353 340 344
137 120 112 102 95 85 58 81 72 54 29 58 67 53 35 44 37 29 17 23 34 39 21 19 13 7 3 354 349 346 346 342
101 100 93 87 75 72 62 89 76 48 34 48 54 54 45 53 45 23 22 26 5 30 23 14 20 8 2 358 344 341 346 350
100 95 90 85 86 56 70 83 68 38 30 49 54 46 48 56 49 45 30 23 17 29 24 12 10 10 2 358 349 349 0 346
97 101 97 84 74 63 47 61 65 40 17 34 50 44 42 47 56 55 30 23 30 29 19 12 8 8 0 358 353 359 351 349
119 114 106 87 83 78 62 65 57 36 15 18 39 38 41 54 56 51 31 35 22 22 14 11 9 6 1 358 351 9 355 357
103 85 74 77 51 74 70 72 59 32 20 18 35 33 34 64 63 50 22 40 30 19 16 10 11 4 358 357 353 7 1 5
125 105 89 68 54 53 71 69 73 36 27 11 25 31 23 57 69 55 18 47 30 22 16 13 9 1 355 356 358 15 8 10
127 118 109 101 87 60 73 88 92 60 43 26 38 35 29 50 80 66 55 45 38 23 29 17 11 360 355 355 8 11 11 13
134 136 155 155 158 169 248 125 146 170 125 213 81 64 55 40 114 83 56 74 40 26 40 20 12 1 356 353 3 16 16 20
138 135 148 152 159 168 200 170 205 230 191 210 138 122 128 75 116 121 109 100 56 29 61 27 8 357 3 355 7 22 20 23
150 161 163 161 163 181 201 206 197 203 205 241 149 176 186 216 95 166 139 111 76 45 99 50 10 16 18 7 16 22 24 24
168 173 177 180 188 196 205 186 194 188 174 145 106 113 123 95 78 113 110 138 148 73 119 85 25 16 27 24 32 18 20 24
173 173 182 181 178 194 176 167 157 136 124 102 91 85 78 74 71 85 93 103 107 78 73 113 45 17 29 25 29 2 22 22
175 178 183 156 154 139 144 138 122 111 106 90 83 86 79 79 76 73 73 81 88 90 72 65 62 32 28 27 25 1 358 15